When you browse on this site, cookies collect data to enhance your experience and personalize the content and advertising you see.
Visit our Privacy Policy to learn more. By continuing to use the site, you agree to this use of cookies and data.
  • In Hungary
  • List of Countries
  • For 7 days
  • Water Temperature
  • Weather Map
  • News
  • Weather Widgets
  • user-avatar
    Login

    Hourly Weather Jodhpur

    Today, 15 November, Friday

    Time Temperature Precipitation Wind Pressure Humidity
    00:00 +27°C° 0 mm 1 mps 748 mmHg 68%
    01:00 +27°C° 0 mm 1 mps 748 mmHg 69%
    02:00 +26°C° 0 mm 1 mps 748 mmHg 69%
    03:00 +26°C° 0 mm 1 mps 748 mmHg 70%
    04:00 +26°C° 0 mm 1 mps 748 mmHg 71%
    05:00 +25°C° 0 mm 1 mps 747 mmHg 72%
    06:00 +26°C° 0 mm 1 mps 748 mmHg 70%
    07:00 +26°C° 0 mm 1 mps 749 mmHg 68%
    08:00 +27°C° 0 mm 1 mps 749 mmHg 66%
    09:00 +28°C° 0 mm 1 mps 749 mmHg 58%
    10:00 +30°C° 0 mm 1 mps 750 mmHg 51%
    11:00 +31°C° 0 mm 1 mps 750 mmHg 44%
    12:00 +32°C° 0 mm 1 mps 749 mmHg 41%
    13:00 +33°C° 0 mm 1 mps 748 mmHg 39%
    14:00 +34°C° 0 mm 2 mps 748 mmHg 36%
    15:00 +33°C° 0.1 mm 3 mps 748 mmHg 42%
    16:00 +32°C° 0.1 mm 4 mps 747 mmHg 48%
    17:00 +30°C° 0.1 mm 6 mps 747 mmHg 55%
    18:00 +29°C° 0.3 mm 5 mps 748 mmHg 58%
    19:00 +28°C° 0.3 mm 5 mps 748 mmHg 62%
    20:00 +27°C° 0.3 mm 4 mps 749 mmHg 65%
    21:00 +27°C° 0 mm 4 mps 748 mmHg 67%
    22:00 +26°C° 0 mm 3 mps 748 mmHg 68%
    23:00 +26°C° 0 mm 3 mps 748 mmHg 70%

    Tomorrow, 16 November, Saturday

    Time Temperature Precipitation Wind Pressure Humidity
    00:00 +26°C° 0 mm 3 mps 748 mmHg 72%
    01:00 +26°C° 0 mm 3 mps 748 mmHg 73%
    02:00 +25°C° 0 mm 3 mps 748 mmHg 75%
    03:00 +25°C° 0 mm 2 mps 748 mmHg 76%
    04:00 +25°C° 0 mm 2 mps 748 mmHg 77%
    05:00 +25°C° 0 mm 2 mps 748 mmHg 78%
    06:00 +25°C° 0 mm 3 mps 748 mmHg 76%
    07:00 +26°C° 0 mm 3 mps 749 mmHg 73%
    08:00 +26°C° 0 mm 3 mps 750 mmHg 71%
    09:00 +28°C° 0 mm 3 mps 750 mmHg 64%
    10:00 +29°C° 0 mm 2 mps 750 mmHg 57%
    11:00 +30°C° 0 mm 2 mps 750 mmHg 49%
    12:00 +31°C° 0 mm 2 mps 749 mmHg 45%
    13:00 +32°C° 0 mm 1 mps 748 mmHg 41%
    14:00 +33°C° 0 mm 1 mps 748 mmHg 37%
    15:00 +34°C° 0 mm 2 mps 748 mmHg 39%
    16:00 +33°C° 0 mm 3 mps 748 mmHg 41%
    17:00 +33°C° 0 mm 4 mps 748 mmHg 43%
    18:00 +32°C° 0 mm 4 mps 748 mmHg 46%
    19:00 +30°C° 0 mm 3 mps 749 mmHg 50%
    20:00 +29°C° 0 mm 3 mps 749 mmHg 53%
    21:00 +28°C° 0 mm 3 mps 749 mmHg 57%
    22:00 +28°C° 0 mm 3 mps 749 mmHg 61%
    23:00 +27°C° 0 mm 3 mps 749 mmHg 66%

    Day after tomorrow, 17 November, Sunday

    Time Temperature Precipitation Wind Pressure Humidity
    00:00 +27°C° 0 mm 3 mps 749 mmHg 68%
    01:00 +26°C° 0 mm 3 mps 749 mmHg 70%
    02:00 +26°C° 0 mm 3 mps 749 mmHg 72%
    03:00 +26°C° 0 mm 3 mps 749 mmHg 70%
    04:00 +26°C° 0 mm 3 mps 749 mmHg 68%
    05:00 +26°C° 0 mm 3 mps 749 mmHg 66%
    06:00 +27°C° 0 mm 3 mps 749 mmHg 62%
    07:00 +27°C° 0 mm 3 mps 750 mmHg 59%
    08:00 +28°C° 0 mm 3 mps 751 mmHg 55%
    09:00 +30°C° 0 mm 4 mps 751 mmHg 49%
    10:00 +33°C° 0 mm 4 mps 751 mmHg 44%
    11:00 +34°C° 0 mm 4 mps 751 mmHg 38%
    12:00 +35°C° 0 mm 4 mps 750 mmHg 35%
    13:00 +36°C° 0 mm 3 mps 749 mmHg 33%
    14:00 +36°C° 0 mm 2 mps 749 mmHg 30%
    15:00 +36°C° 0 mm 2 mps 749 mmHg 30%
    16:00 +36°C° 0 mm 2 mps 748 mmHg 31%
    17:00 +35°C° 0 mm 3 mps 748 mmHg 32%
    18:00 +34°C° 0 mm 3 mps 749 mmHg 35%
    19:00 +32°C° 0 mm 4 mps 749 mmHg 38%
    20:00 +30°C° 0 mm 4 mps 750 mmHg 41%
    21:00 +30°C° 0 mm 4 mps 750 mmHg 42%
    22:00 +29°C° 0 mm 4 mps 750 mmHg 44%
    23:00 +29°C° 0 mm 3 mps 750 mmHg 45%

    18 November, Monday

    Time Temperature Precipitation Wind Pressure Humidity
    00:00 +28°C° 0 mm 3 mps 749 mmHg 46%
    01:00 +28°C° 0 mm 3 mps 749 mmHg 46%
    02:00 +28°C° 0 mm 3 mps 749 mmHg 46%
    03:00 +27°C° 0 mm 3 mps 749 mmHg 47%
    04:00 +27°C° 0 mm 3 mps 749 mmHg 47%
    05:00 +27°C° 0 mm 3 mps 749 mmHg 48%
    06:00 +27°C° 0 mm 3 mps 749 mmHg 48%
    07:00 +28°C° 0 mm 4 mps 750 mmHg 47%
    08:00 +28°C° 0 mm 4 mps 751 mmHg 46%
    09:00 +30°C° 0 mm 4 mps 751 mmHg 42%
    10:00 +33°C° 0 mm 3 mps 751 mmHg 37%
    11:00 +34°C° 0 mm 3 mps 751 mmHg 33%
    12:00 +35°C° 0 mm 3 mps 750 mmHg 30%
    13:00 +35°C° 0 mm 2 mps 749 mmHg 28%
    14:00 +36°C° 0 mm 2 mps 749 mmHg 26%
    15:00 +35°C° 0 mm 2 mps 749 mmHg 28%
    16:00 +35°C° 0 mm 3 mps 749 mmHg 30%
    17:00 +34°C° 0 mm 4 mps 748 mmHg 32%
    18:00 +33°C° 0 mm 3 mps 749 mmHg 34%
    19:00 +31°C° 0 mm 3 mps 749 mmHg 37%
    20:00 +30°C° 0 mm 3 mps 749 mmHg 39%
    21:00 +29°C° 0 mm 3 mps 749 mmHg 41%
    22:00 +28°C° 0 mm 3 mps 749 mmHg 43%
    23:00 +28°C° 0 mm 3 mps 749 mmHg 45%

    19 November, Tuesday

    Time Temperature Precipitation Wind Pressure Humidity
    00:00 +28°C° 0 mm 3 mps 749 mmHg 44%
    01:00 +27°C° 0 mm 3 mps 749 mmHg 42%
    02:00 +27°C° 0 mm 3 mps 748 mmHg 41%
    03:00 +27°C° 0 mm 3 mps 748 mmHg 41%
    04:00 +26°C° 0 mm 3 mps 748 mmHg 41%
    05:00 +26°C° 0 mm 3 mps 748 mmHg 41%
    06:00 +26°C° 0 mm 3 mps 749 mmHg 41%
    07:00 +27°C° 0 mm 3 mps 749 mmHg 41%
    08:00 +27°C° 0 mm 3 mps 750 mmHg 41%
    09:00 +29°C° 0 mm 3 mps 750 mmHg 37%
    10:00 +30°C° 0 mm 3 mps 750 mmHg 33%
    11:00 +33°C° 0 mm 3 mps 750 mmHg 29%
    12:00 +33°C° 0 mm 3 mps 749 mmHg 28%
    13:00 +34°C° 0 mm 2 mps 748 mmHg 27%
    14:00 +34°C° 0 mm 2 mps 747 mmHg 26%
    15:00 +34°C° 0 mm 2 mps 747 mmHg 27%
    16:00 +34°C° 0 mm 2 mps 747 mmHg 28%
    17:00 +32°C° 0 mm 2 mps 747 mmHg 30%
    18:00 +31°C° 0 mm 2 mps 747 mmHg 33%
    19:00 +30°C° 0 mm 2 mps 748 mmHg 36%
    20:00 +28°C° 0 mm 2 mps 748 mmHg 39%
    21:00 +28°C° 0 mm 2 mps 748 mmHg 41%
    22:00 +27°C° 0 mm 2 mps 748 mmHg 43%
    23:00 +27°C° 0 mm 2 mps 748 mmHg 45%

    20 November, Wednesday

    Time Temperature Precipitation Wind Pressure Humidity
    00:00 +26°C° 0 mm 2 mps 748 mmHg 48%
    01:00 +26°C° 0 mm 2 mps 747 mmHg 51%
    02:00 +25°C° 0 mm 2 mps 747 mmHg 54%
    03:00 +25°C° 0 mm 2 mps 747 mmHg 53%
    04:00 +25°C° 0 mm 2 mps 747 mmHg 53%
    05:00 +24°C° 0 mm 2 mps 747 mmHg 52%
    06:00 +25°C° 0 mm 2 mps 748 mmHg 49%
    07:00 +26°C° 0 mm 2 mps 748 mmHg 45%
    08:00 +27°C° 0 mm 2 mps 749 mmHg 41%
    09:00 +28°C° 0 mm 2 mps 749 mmHg 36%
    10:00 +30°C° 0 mm 2 mps 749 mmHg 32%
    11:00 +32°C° 0 mm 2 mps 749 mmHg 28%
    12:00 +34°C° 0 mm 2 mps 748 mmHg 26%
    13:00 +33°C° 0 mm 1 mps 748 mmHg 24%
    14:00 +34°C° 0 mm 1 mps 747 mmHg 22%
    15:00 +34°C° 0 mm 2 mps 747 mmHg 24%
    16:00 +34°C° 0 mm 2 mps 747 mmHg 27%
    17:00 +33°C° 0 mm 3 mps 747 mmHg 29%
    18:00 +31°C° 0 mm 3 mps 747 mmHg 34%
    19:00 +29°C° 0 mm 3 mps 748 mmHg 39%
    20:00 +28°C° 0 mm 3 mps 748 mmHg 43%
    21:00 +27°C° 0 mm 3 mps 748 mmHg 46%
    22:00 +27°C° 0 mm 3 mps 748 mmHg 48%
    23:00 +26°C° 0 mm 3 mps 749 mmHg 50%
    Show more